Location: Newark
(42.7133°N, 87.7910°W)
Time: 23:50:53
(UTC+00:00)

A-11 Canister half - Pass Details

Date: 24 September 2019
Orbit: 1527 x 1682 km, 47.3° (Epoch: 13 October)

Event Time Altitude Azimuth Distance (km) Brightness Sun altitude
Exits shadow 06:57:20 21° 101° (E) 2,968 10.5 -44.5°
Drops below altitude 10° 07:01:15 10° 79° (E) 3,746 11.3 -44.2°
Sets 07:05:03 0° 67° (ENE) 4,755 12.1 -43.9°
